RH
31 31 30 29 32 30 26 24 23 24 25 25 24 28 55 24 34 55 52 42 41 53 63 74 82 78 76 77 79 91 97 62 40 47 42 82 94 99 63 99 84 60 39
30 31 38 38 43 54 58 60 63 68 76 85 80 36 36 32 34 39 45 50 57 56 67 73 80 78 74 80 73 88 35 38 48 37 44 53 52 57 59 60 51 34 52
22 29 42 52 60 66 65 73 79 76 78 77 80 87 80 46 51 70 76 75 80 86 88 83 83 84 85 82 55 45 43 45 47 42 37 77 46 54 58 65 75 49 36
35 41 34 26 21 43 68 74 72 38 29 33 46 81 69 76 79 77 65 72 60 40 38 37 37 38 45 60 57 42 40 42 38 42 57 60 45 37 56 93 71 39 36
45 43 44 32 30 32 31 31 31 28 31 32 28 28 55 51 44 46 46 36 24 24 29 46 44 43 53 56 67 68 72 60 63 59 54 43 34 37 42 44 45 43 71
58 57 51 48 44 38 32 28 31 33 31 39 34 31 51 83 86 75 78 69 42 32 32 30 38 35 39 46 50 48 57 59 54 54 48 51 48 40 40 46 78 99 95
73 71 67 48 44 29 31 23 30 37 40 39 31 42 66 86 100 91 69 51 52 52 41 35 34 42 38 44 48 54 53 57 64 67 73 76 71 76 90 100 96 99 99
77 75 72 78 62 43 33 23 24 29 30 28 28 46 82 96 89 89 72 74 76 60 38 28 28 35 38 44 58 71 80 84 86 88 100 99 100 98 93 94 100 99 97
59 80 97 90 73 64 53 39 25 22 24 29 32 27 26 30 37 36 37 44 50 31 31 44 59 68 72 76 81 86 93 98 100 98 99 97 97 100 100 100 100 100 100
96 82 92 92 88 74 56 48 35 30 31 32 32 37 41 33 22 25 43 40 48 67 69 72 77 81 81 83 89 93 93 96 92 86 88 91 86 88 97 94 87 90 74
84 94 92 82 90 67 80 77 56 44 48 47 30 28 38 48 49 53 69 72 70 79 87 90 88 82 76 78 86 87 90 93 100 100 100 100 100 60 51 72 99 99 100
100 97 99 100 100 81 75 98 77 64 62 66 57 53 54 57 64 73 89 98 96 98 99 98 95 92 86 88 92 98 100 100 100 100 100 90 54 73 99 100 100 98 92
95 97 96 99 95 93 91 100 94 74 59 72 98 98 96 98 89 93 97 93 93 100 99 98 97 94 98 100 100 100 100 100 84 51 39 58 99 100 100 100 87 73 74
92 94 98 94 86 93 98 99 99 88 73 98 94 96 98 98 93 89 97 100 100 100 100 100 100 100 100 100 100 91 60 43 47 69 95 100 99 98 88 73 67 68 63
85 85 99 84 94 98 98 92 80 99 99 92 90 97 100 100 96 92 100 99 100 99 95 100 100 100 88 69 53 64 83 94 99 100 100 94 80 70 66 64 58 48 39
85 90 100 99 96 94 93 99 98 92 94 98 100 100 100 100 100 100 100 99 100 100 100 100 99 99 97 98 100 100 100 94 86 85 75 67 66 64 56 42 30 22 13
100 100 97 94 92 100 100 97 98 100 100 100 100 100 100 100 100 100 100 100 100 100 100 100 99 100 100 100 95 89 89 88 89 83 72 64 52 39 28 19 11 7 5
99 99 98 100 99 99 99 99 100 99 100 100 100 99 99 100 100 100 100 100 100 100 100 99 100 100 99 93 86 88 94 94 76 63 50 35 21 13 8 5 5 5 5
99 99 98 98 99 100 100 100 100 100 99 100 100 100 100 100 100 100 100 100 100 100 100 100 100 98 92 90 97 91 75 61 46 29 15 10 7 5 5 5 5 6 7
92 100 100 99 100 99 100 100 100 100 99 99 99 98 99 100 100 100 99 95 94 95 96 94 94 94 99 88 73 59 40 21 13 10 6 4 5 5 6 7 7 8 8
100 100 100 100 100 100 100 100 100 100 100 99 94 86 84 81 71 75 95 100 100 100 100 100 96 86 72 59 35 19 14 9 5 5 5 5 7 8 8 9 10 11 13
98 90 89 88 92 93 89 87 77 59 51 49 50 54 71 88 100 100 100 100 100 98 93 87 74 58 36 22 15 9 6 5 6 6 8 8 8 10 12 15 19 24 25
81 76 76 81 79 75 73 70 66 69 78 91 100 100 100 100 100 100 99 98 94 89 77 57 38 22 14 8 6 6 6 7 9 10 10 10 13 17 25 33 41 48 50
74 74 74 76 78 81 86 90 91 97 98 100 100 99 99 98 98 99 96 90 77 53 34 18 11 7 6 6 7 8 9 11 11 12 14 16 20 23 25 29 38 61 70
99 100 96 96 97 100 100 100 100 100 100 100 99 100 100 97 88 82 70 50 34 21 10 6 7 7 7 8 10 12 14 13 15 18 20 21 21 25 30 33 36 52 76
95 94 100 100 100 100 100 100 100 100 100 99 99 97 90 80 65 48 34 18 9 7 8 8 8 8 9 12 15 16 16 18 22 25 28 27 28 29 30 34 40 47 70
Wind_Speed
13 12 11 10 7 7 8 9 10 10 11 13 16 19 21 22 19 21 24 26 29 29 30 31 31 33 38 41 41 44 38 41 39 43 40 37 47 54 54 47 57 58 60
13 13 14 14 13 12 13 13 13 15 17 20 21 25 24 25 26 27 28 31 32 34 35 35 33 39 38 37 32 35 38 40 43 43 44 45 49 54 56 60 60 64 62
13 11 11 14 15 17 17 17 16 16 18 19 21 22 28 29 29 23 24 26 26 26 27 28 31 34 35 38 35 37 41 44 47 48 48 44 56 56 59 62 65 68 69
19 19 19 20 18 18 18 16 17 19 17 19 17 21 23 27 31 27 26 25 24 25 27 30 31 34 35 40 41 43 45 48 50 50 55 56 60 61 62 67 69 72 75
24 22 23 23 23 24 23 21 23 24 21 21 23 23 23 26 25 28 28 26 29 31 32 34 36 37 40 42 46 49 49 51 54 55 58 61 65 66 67 70 71 73 74
23 23 23 24 26 27 29 31 31 30 29 29 27 28 27 28 30 31 32 32 35 36 38 39 41 43 45 46 52 54 55 57 59 62 63 64 68 68 70 71 74 73 74
23 24 24 25 26 28 29 28 27 28 31 31 30 30 29 29 27 29 33 38 38 41 42 44 47 49 51 53 56 58 60 61 62 64 65 67 71 71 73 73 75 76 77
27 28 28 28 27 27 29 28 28 27 29 31 31 30 31 32 32 34 38 42 43 45 47 50 51 53 55 57 59 61 62 63 64 65 68 71 71 73 75 76 78 80 82
30 29 28 28 30 32 31 31 30 31 32 33 35 35 36 37 38 40 42 44 46 49 49 50 51 53 55 58 61 63 64 66 65 70 70 72 74 76 78 81 84 83 83
35 34 35 34 31 31 31 33 34 33 35 38 39 39 40 41 42 43 44 45 46 48 49 51 53 55 59 61 64 65 66 68 69 72 72 74 75 76 80 82 84 88 89
45 41 38 37 35 32 29 30 33 35 34 35 37 38 38 39 41 42 43 46 49 50 52 54 55 57 57 59 61 64 67 70 74 72 76 79 80 82 81 83 88 87 88
44 36 37 41 42 38 35 33 36 37 38 38 39 40 41 42 45 47 49 52 53 53 55 56 57 60 63 65 67 69 70 72 74 77 81 83 83 83 83 83 84 87 89
41 46 46 45 44 45 44 44 38 42 41 42 46 48 49 43 46 49 51 52 54 58 62 61 64 68 68 70 74 74 74 77 78 79 82 82 82 84 84 86 89 92 95
41 45 50 41 44 47 57 61 51 50 49 53 56 50 51 54 55 56 57 59 60 62 65 67 71 72 72 75 78 76 78 80 81 81 82 83 84 86 90 94 96 99 103
46 47 48 46 50 57 60 53 52 58 58 59 56 59 66 58 57 59 63 67 66 69 71 70 71 69 69 71 73 76 78 79 80 80 80 83 89 93 96 100 104 107 111
52 53 55 54 58 59 59 59 59 58 59 65 67 67 73 64 63 61 58 63 64 67 68 69 69 69 70 73 75 77 79 81 80 81 86 92 95 99 103 107 111 115 118
62 62 61 65 67 66 66 61 60 66 70 66 65 62 54 54 56 55 62 67 70 70 69 69 69 71 74 77 79 81 82 82 84 90 95 98 102 106 110 115 117 118 116
52 55 59 62 57 59 60 62 65 64 60 60 57 57 57 56 57 60 61 62 62 64 67 68 71 75 78 80 80 80 82 88 93 96 100 105 109 113 115 115 113 110 106
44 49 49 44 45 51 56 58 56 53 53 55 57 55 56 54 54 58 60 62 65 69 73 75 78 80 81 80 80 85 90 94 98 103 107 110 112 111 110 106 101 96 92
42 48 48 40 40 39 42 47 47 50 56 57 58 60 55 57 62 62 65 69 72 75 77 78 79 79 80 83 88 92 96 100 104 107 107 107 105 100 95 91 86 79 73
39 35 39 37 34 37 37 42 43 48 56 61 61 59 59 62 65 67 70 73 75 76 77 77 79 82 86 90 94 97 101 102 102 101 99 95 89 84 79 73 66 59 54
38 40 44 46 49 50 51 54 56 58 60 63 65 66 67 68 69 72 74 77 77 77 77 80 84 87 91 94 97 97 96 95 92 88 83 79 73 67 59 53 49 45 42
44 47 48 50 52 55 56 57 58 60 61 63 66 68 71 72 74 75 75 75 76 79 81 84 88 91 93 92 90 88 86 81 77 73 69 63 56 47 42 41 39 36 33
48 50 53 55 56 57 59 60 61 62 63 66 68 70 71 72 71 71 73 76 79 82 86 88 87 87 85 83 81 77 71 68 64 58 53 47 42 41 40 38 35 32 28
47 49 52 54 56 58 61 63 64 65 66 67 67 66 66 68 72 74 76 79 82 84 84 82 78 78 77 74 69 64 62 57 52 49 47 45 45 44 41 35 30 27 23
55 56 58 58 59 60 61 62 63 63 63 63 64 67 69 72 75 77 79 79 78 75 73 72 72 71 67 62 59 55 51 49 48 47 46 45 44 42 37 31 25 20 18
Wind_Direction
248 248 256 252 251 251 246 244 246 245 244 248 245 244 239 246 249 250 252 258 262 264 267 272 277 283 281 279 286 286 282 288 287 290 297 286 282 286 291 281 285 290 295
250 245 248 247 251 254 249 241 243 251 259 268 261 253 252 254 254 257 260 261 269 269 272 269 276 283 288 293 287 283 284 282 284 286 287 287 284 285 288 289 292 293 294
278 279 266 261 260 254 247 242 260 270 269 279 267 261 254 252 257 253 261 266 274 278 279 277 280 283 286 285 281 279 281 281 281 283 283 288 285 286 287 288 291 294 293
281 290 294 286 271 260 255 260 261 268 279 287 296 269 263 255 253 259 265 266 270 275 275 278 280 280 281 280 279 281 282 283 285 285 282 283 285 287 286 287 289 291 292
267 283 294 293 284 277 273 265 265 269 268 273 278 272 265 261 252 252 260 266 269 269 275 276 279 281 281 282 283 284 283 283 283 284 283 284 285 286 288 289 291 291 291
266 270 278 283 284 279 279 274 270 266 268 273 275 266 260 257 260 259 262 262 268 273 276 278 280 282 282 282 281 284 283 283 284 285 286 289 287 287 288 289 289 291 292
257 266 271 272 280 279 275 272 268 264 263 265 267 261 257 257 257 260 262 266 269 273 277 279 280 280 280 281 281 282 283 283 284 286 290 286 289 290 289 291 292 292 292
262 264 264 259 272 273 271 264 262 258 259 261 263 263 259 259 260 262 263 267 272 276 279 281 281 282 282 283 283 283 284 284 285 286 284 288 289 289 289 291 291 290 291
253 256 258 262 273 273 271 264 263 263 260 259 264 263 262 262 263 266 269 273 275 277 278 280 281 282 284 284 284 283 284 284 283 284 285 287 288 288 291 291 291 291 290
252 250 254 265 264 266 264 263 264 263 262 262 263 263 264 266 268 269 269 269 272 274 277 279 282 284 285 285 284 285 285 285 285 285 286 288 290 292 291 289 290 291 292
243 233 251 257 262 264 263 267 269 267 265 266 265 265 265 266 267 268 269 272 273 275 279 282 282 286 287 288 287 287 286 285 284 285 288 293 292 293 293 291 291 292 293
244 252 245 250 255 262 264 263 263 264 266 267 268 266 266 266 266 268 271 277 273 278 285 284 285 288 288 285 286 285 283 284 283 282 288 290 292 294 293 293 294 295 295
242 251 233 240 251 261 262 260 266 271 269 270 271 271 273 270 274 273 275 278 275 279 283 284 286 287 289 286 283 279 280 289 293 291 293 294 294 293 293 295 296 295 295
245 252 262 247 253 254 260 261 260 264 264 269 267 267 269 273 276 276 276 277 277 282 284 283 284 285 286 282 283 289 291 292 293 294 295 295 294 295 295 296 297 298 298
247 249 253 252 252 253 260 259 263 266 266 272 271 280 280 273 278 280 277 272 276 279 281 282 283 284 286 288 290 291 292 293 293 293 293 293 294 296 297 298 298 297 296
244 245 246 248 252 255 259 258 261 270 272 273 279 276 278 271 271 269 267 269 270 273 278 281 285 288 291 292 292 292 293 294 293 292 294 296 297 298 298 298 297 297 296
243 243 245 249 252 253 257 263 263 268 269 267 265 263 262 259 258 258 260 267 267 273 286 289 290 291 293 295 295 295 294 293 293 297 299 300 299 299 299 298 297 296 295
241 248 248 255 256 253 256 260 261 262 261 262 256 253 252 256 261 268 278 281 284 288 290 293 294 295 296 297 297 296 295 297 300 301 300 300 300 299 298 298 298 298 298
247 258 268 270 262 254 255 257 253 249 249 254 258 265 270 280 286 288 291 292 292 294 295 296 297 297 297 298 298 300 301 301 301 300 300 300 300 300 301 301 301 300 300
269 267 267 265 260 265 260 257 262 265 265 271 281 287 282 286 289 291 292 292 293 294 295 296 297 298 299 301 302 301 301 301 301 301 302 303 303 304 304 303 303 303 304
264 266 263 264 267 275 275 276 271 275 283 289 292 292 291 290 290 289 290 293 294 296 298 298 298 299 301 301 300 301 301 302 303 304 305 306 306 307 306 307 308 308 309
281 283 284 286 288 290 291 291 292 291 290 290 291 291 292 292 292 293 294 295 296 297 297 297 299 299 300 300 302 304 305 305 306 307 307 309 310 311 312 312 312 314 315
283 285 284 284 285 287 287 285 285 285 286 288 290 290 291 291 292 294 295 295 295 297 297 298 299 301 303 304 306 306 307 308 309 310 312 315 316 318 319 319 321 320 321
278 280 282 282 281 282 284 285 286 287 289 289 289 290 291 292 293 294 295 296 298 298 299 301 303 305 306 307 307 309 309 310 312 314 317 320 321 321 320 321 323 323 323
279 279 280 280 281 282 283 285 286 287 288 289 290 290 291 293 295 296 297 299 301 302 303 305 306 307 307 308 309 310 312 313 313 315 315 316 316 316 316 315 317 319 321
287 284 283 282 282 282 283 285 286 287 288 289 291 293 295 297 298 300 301 303 304 305 306 308 308 307 308 309 311 312 312 312 312 313 313 314 314 314 314 311 310 313 316